TimePST,TemperatureF,Dew PointF,Humidity,Sea Level PressureIn,VisibilityMPH,Wind Direction,Wind SpeedMPH,Gust SpeedMPH,PrecipitationIn,Events,Conditions,WindDirDegrees,DateUTC
12:15 AM,39.2,37.4,93,30.08,10.0,SE,3.5,-,N/A,,Overcast,140,2013-01-28 08:15:00
12:35 AM,39.2,37.4,93,30.09,10.0,SE,3.5,-,N/A,,Overcast,140,2013-01-28 08:35:00
12:55 AM,39.2,37.4,93,30.09,9.0,SE,4.6,-,N/A,,Overcast,130,2013-01-28 08:55:00
1:15 AM,39.2,37.4,93,30.09,9.0,SE,4.6,-,N/A,,Overcast,140,2013-01-28 09:15:00
1:35 AM,39.2,37.4,93,30.09,7.0,ESE,3.5,-,N/A,,Overcast,110,2013-01-28 09:35:00
1:55 AM,39.2,37.4,93,30.10,10.0,SE,3.5,-,N/A,,Overcast,140,2013-01-28 09:55:00
2:15 AM,39.2,37.4,93,30.10,10.0,South,5.8,-,N/A,,Overcast,170,2013-01-28 10:15:00
2:35 AM,39.2,37.4,93,30.10,8.0,SE,5.8,-,N/A,,Overcast,130,2013-01-28 10:35:00
2:55 AM,39.2,37.4,93,30.10,8.0,SE,4.6,-,N/A,,Mostly Cloudy,140,2013-01-28 10:55:00
3:15 AM,39.2,37.4,93,30.11,10.0,SE,4.6,-,N/A,,Overcast,140,2013-01-28 11:15:00
3:35 AM,39.2,37.4,93,30.11,10.0,SE,4.6,-,N/A,,Overcast,140,2013-01-28 11:35:00
3:55 AM,39.2,35.6,87,30.11,10.0,SSE,3.5,-,N/A,,Overcast,160,2013-01-28 11:55:00
4:15 AM,39.2,35.6,87,30.11,10.0,Calm,Calm,-,N/A,,Mostly Cloudy,0,2013-01-28 12:15:00
4:35 AM,39.2,35.6,87,30.11,10.0,SE,4.6,-,N/A,,Overcast,140,2013-01-28 12:35:00
4:55 AM,39.2,35.6,87,30.11,10.0,SE,3.5,-,N/A,,Overcast,130,2013-01-28 12:55:00
5:15 AM,39.2,37.4,93,30.12,10.0,SE,3.5,-,N/A,,Overcast,140,2013-01-28 13:15:00
5:35 AM,39.2,35.6,87,30.11,10.0,Calm,Calm,-,N/A,,Overcast,0,2013-01-28 13:35:00
5:55 AM,39.2,37.4,93,30.12,10.0,Calm,Calm,-,N/A,,Overcast,0,2013-01-28 13:55:00
6:15 AM,39.2,37.4,93,30.12,10.0,Calm,Calm,-,N/A,,Overcast,0,2013-01-28 14:15:00
6:35 AM,39.2,37.4,93,30.13,10.0,Calm,Calm,-,N/A,,Overcast,0,2013-01-28 14:35:00
6:55 AM,39.2,37.4,93,30.13,10.0,Calm,Calm,-,N/A,,Mostly Cloudy,0,2013-01-28 14:55:00
7:15 AM,39.2,37.4,93,30.13,9.0,Calm,Calm,-,N/A,,Overcast,0,2013-01-28 15:15:00
7:35 AM,39.2,37.4,93,30.14,8.0,Calm,Calm,-,0.01,,Overcast,0,2013-01-28 15:35:00
7:55 AM,39.2,37.4,93,30.14,7.0,Calm,Calm,-,0.01,,Overcast,0,2013-01-28 15:55:00
8:15 AM,39.2,37.4,93,30.14,8.0,Calm,Calm,-,N/A,,Overcast,0,2013-01-28 16:15:00
8:35 AM,41.0,37.4,87,30.14,10.0,Calm,Calm,-,N/A,,Overcast,0,2013-01-28 16:35:00
8:55 AM,41.0,37.4,87,30.15,7.0,Calm,Calm,-,N/A,,Overcast,0,2013-01-28 16:55:00
9:15 AM,41.0,37.4,87,30.15,9.0,Calm,Calm,-,0.01,,Overcast,0,2013-01-28 17:15:00
9:35 AM,42.8,37.4,81,30.15,10.0,Calm,Calm,-,0.01,,Overcast,0,2013-01-28 17:35:00
9:55 AM,42.8,37.4,81,30.15,10.0,Calm,Calm,-,0.01,,Overcast,0,2013-01-28 17:55:00
10:35 AM,42.8,37.4,81,30.15,10.0,Calm,Calm,-,N/A,,Overcast,0,2013-01-28 18:35:00
10:55 AM,42.8,37.4,81,30.16,10.0,SE,4.6,-,N/A,,Overcast,130,2013-01-28 18:55:00
11:15 AM,42.8,37.4,81,30.16,10.0,SSE,5.8,-,N/A,,Overcast,150,2013-01-28 19:15:00
11:35 AM,42.8,37.4,81,30.15,10.0,SSE,6.9,-,0.01,,Overcast,150,2013-01-28 19:35:00
11:55 AM,42.8,37.4,81,30.15,9.0,SE,5.8,-,0.02,,Overcast,140,2013-01-28 19:55:00
12:15 PM,42.8,37.4,81,30.15,9.0,SSE,8.1,-,N/A,,Overcast,150,2013-01-28 20:15:00
12:35 PM,42.8,37.4,81,30.15,9.0,SSE,6.9,-,0.02,,Overcast,160,2013-01-28 20:35:00
12:55 PM,41.0,37.4,87,30.14,8.0,SE,6.9,-,0.04,,Overcast,140,2013-01-28 20:55:00
1:15 PM,41.0,37.4,87,30.14,9.0,SE,6.9,-,0.01,,Overcast,140,2013-01-28 21:15:00
1:35 PM,41.0,37.4,87,30.13,5.0,SE,8.1,-,0.04,,Overcast,140,2013-01-28 21:35:00
1:55 PM,41.0,37.4,87,30.13,5.0,SSE,6.9,-,0.07,,Overcast,150,2013-01-28 21:55:00
2:15 PM,42.8,39.2,87,30.13,10.0,SE,6.9,-,0.01,,Overcast,140,2013-01-28 22:15:00
2:35 PM,42.8,39.2,87,30.13,6.0,South,5.8,-,0.04,,Overcast,170,2013-01-28 22:35:00
2:55 PM,42.8,39.2,87,30.14,8.0,West,8.1,-,0.06,,Overcast,270,2013-01-28 22:55:00
3:15 PM,44.6,39.2,81,30.14,8.0,West,5.8,-,0.01,,Overcast,260,2013-01-28 23:15:00
3:35 PM,44.6,39.2,81,30.14,10.0,Calm,Calm,-,0.03,,Mostly Cloudy,0,2013-01-28 23:35:00
3:55 PM,42.8,39.2,87,30.14,10.0,Calm,Calm,-,0.04,,Overcast,0,2013-01-28 23:55:00
4:15 PM,42.8,39.2,87,30.14,10.0,Calm,Calm,-,0.02,,Mostly Cloudy,0,2013-01-29 00:15:00
4:35 PM,42.8,39.2,87,30.14,7.0,Calm,Calm,-,0.04,,Overcast,0,2013-01-29 00:35:00
4:55 PM,42.8,39.2,87,30.14,5.0,Calm,Calm,-,0.08,,Overcast,0,2013-01-29 00:55:00
5:15 PM,42.8,39.2,87,30.14,7.0,Calm,Calm,-,0.01,,Overcast,0,2013-01-29 01:15:00
5:35 PM,44.6,39.2,81,30.14,10.0,WNW,5.8,-,0.03,,Overcast,290,2013-01-29 01:35:00
5:55 PM,42.8,39.2,87,30.14,10.0,Calm,Calm,-,0.05,,Overcast,0,2013-01-29 01:55:00
6:15 PM,42.8,39.2,87,30.14,7.0,Calm,Calm,-,0.01,,Overcast,0,2013-01-29 02:15:00
6:35 PM,42.8,39.2,87,30.15,6.0,SW,4.6,-,0.03,,Overcast,230,2013-01-29 02:35:00
6:55 PM,42.8,39.2,87,30.15,7.0,West,5.8,-,0.06,,Overcast,260,2013-01-29 02:55:00
7:15 PM,42.8,39.2,87,30.16,8.0,West,4.6,-,0.02,,Overcast,260,2013-01-29 03:15:00
7:35 PM,42.8,39.2,87,30.16,9.0,West,8.1,-,0.05,,Overcast,270,2013-01-29 03:35:00
7:55 PM,42.8,39.2,87,30.16,9.0,Calm,Calm,-,0.08,,Overcast,0,2013-01-29 03:55:00
8:15 PM,42.8,39.2,87,30.16,9.0,Calm,Calm,-,0.02,,Overcast,0,2013-01-29 04:15:00
8:35 PM,42.8,39.2,87,30.16,10.0,SW,3.5,-,0.04,,Overcast,230,2013-01-29 04:35:00
8:55 PM,42.8,39.2,87,30.17,10.0,Calm,Calm,-,0.07,,Overcast,0,2013-01-29 04:55:00
9:15 PM,42.8,39.2,87,30.17,10.0,SW,4.6,-,0.02,,Overcast,230,2013-01-29 05:15:00
9:35 PM,42.8,39.2,87,30.17,10.0,Calm,Calm,-,0.04,,Overcast,0,2013-01-29 05:35:00
9:55 PM,42.8,39.2,87,30.17,10.0,Calm,Calm,-,0.06,,Overcast,0,2013-01-29 05:55:00
10:15 PM,42.8,39.2,87,30.17,10.0,Calm,Calm,-,0.01,,Overcast,0,2013-01-29 06:15:00
10:35 PM,42.8,39.2,87,30.17,7.0,ESE,5.8,-,0.02,,Overcast,120,2013-01-29 06:35:00
10:55 PM,42.8,39.2,87,30.19,7.0,Calm,Calm,-,0.03,,Overcast,0,2013-01-29 06:55:00
11:15 PM,42.8,39.2,87,30.19,6.0,Calm,Calm,-,0.01,,Overcast,0,2013-01-29 07:15:00
11:35 PM,42.8,39.2,87,30.19,9.0,Calm,Calm,-,0.01,,Overcast,0,2013-01-29 07:35:00
11:55 PM,44.6,39.2,81,30.19,7.0,NW,3.5,-,0.02,,Overcast,310,2013-01-29 07:55:00